BOV302 SLLP-SLUY

Flight info

Callsign BOV302
Flight time 0h 46m
Altitude 34000
Route ARPIS DCT ORU DCT UNI
Aircraft B738/M-SDE2E3FGHIRWXY/LB1

Departure

Time 2026-05-03 22:08
Airport El Alto International Airport (SLLP)

Arrival

Time 2026-05-03 22:55
Airport Joya Andina International Airport (SLUY)
Time Latitude Longitude Altitude Speed Heading
2026-05-03 21:52 -16.50971 -68.17689 13334 ft 0 kts 27°
2026-05-03 21:57 -16.50980 -68.17694 13335 ft 3 kts 22°
2026-05-03 21:58 -16.50999 -68.17699 13335 ft 3 kts 360°
2026-05-03 21:58 -16.51017 -68.17696 13333 ft 3 kts 330°
2026-05-03 21:58 -16.51032 -68.17683 13335 ft 3 kts 308°
2026-05-03 21:58 -16.51044 -68.17666 13334 ft 3 kts 298°
2026-05-03 21:59 -16.51050 -68.17653 13334 ft 1 kts 299°
2026-05-03 22:01 -16.51043 -68.17667 13334 ft 8 kts 299°
2026-05-03 22:01 -16.51002 -68.17748 13334 ft 14 kts 290°
2026-05-03 22:01 -16.50992 -68.17847 13335 ft 13 kts 266°
2026-05-03 22:02 -16.51039 -68.17926 13335 ft 13 kts 226°
2026-05-03 22:02 -16.51102 -68.17997 13331 ft 14 kts 228°
2026-05-03 22:02 -16.51178 -68.18081 13321 ft 19 kts 227°
2026-05-03 22:02 -16.51278 -68.18206 13304 ft 24 kts 236°
2026-05-03 22:03 -16.51338 -68.18360 13297 ft 23 kts 257°
2026-05-03 22:03 -16.51355 -68.18521 13296 ft 22 kts 272°
2026-05-03 22:03 -16.51352 -68.18680 13293 ft 22 kts 272°
2026-05-03 22:03 -16.51347 -68.18858 13290 ft 27 kts 271°
2026-05-03 22:04 -16.51340 -68.19074 13283 ft 33 kts 272°
2026-05-03 22:04 -16.51332 -68.19315 13278 ft 33 kts 271°
2026-05-03 22:04 -16.51325 -68.19559 13265 ft 35 kts 271°
2026-05-03 22:04 -16.51318 -68.19821 13243 ft 38 kts 271°
2026-05-03 22:05 -16.51308 -68.20107 13219 ft 42 kts 272°
2026-05-03 22:05 -16.51296 -68.20422 13195 ft 45 kts 272°
2026-05-03 22:05 -16.51289 -68.20667 13177 ft 18 kts 271°
2026-05-03 22:05 -16.51286 -68.20761 13171 ft 21 kts 273°
2026-05-03 22:06 -16.51281 -68.20910 13164 ft 15 kts 271°
2026-05-03 22:06 -16.51257 -68.21027 13160 ft 18 kts 296°
2026-05-03 22:06 -16.51274 -68.21075 13158 ft 5 kts 180°
2026-05-03 22:06 -16.51282 -68.21070 13158 ft 1 kts 134°
2026-05-03 22:07 -16.51282 -68.21065 13158 ft 1 kts 94°
2026-05-03 22:07 -16.51281 -68.21056 13159 ft 2 kts 80°
2026-05-03 22:07 -16.51276 -68.21002 13161 ft 21 kts 91°
2026-05-03 22:07 -16.51289 -68.20633 13180 ft 79 kts 92°
2026-05-03 22:08 -16.51312 -68.19883 13244 ft 127 kts 91°
2026-05-03 22:08 -16.51346 -68.18806 13291 ft 170 kts 92°
2026-05-03 22:08 -16.51399 -68.17484 13654 ft 190 kts 93°
2026-05-03 22:08 -16.51462 -68.16044 14171 ft 206 kts 94°
2026-05-03 22:09 -16.51509 -68.14526 14616 ft 222 kts 92°
2026-05-03 22:09 -16.51792 -68.12863 14735 ft 247 kts 118°
2026-05-03 22:09 -16.53055 -68.11558 14872 ft 271 kts 153°
2026-05-03 22:10 -16.56855 -68.10310 15504 ft 296 kts 162°
2026-05-03 22:10 -16.58794 -68.09691 16218 ft 294 kts 162°
2026-05-03 22:10 -16.60743 -68.09073 17009 ft 292 kts 162°
2026-05-03 22:10 -16.62703 -68.08453 17631 ft 297 kts 162°
2026-05-03 22:11 -16.64684 -68.07797 18250 ft 300 kts 156°
2026-05-03 22:11 -16.66371 -68.06525 18897 ft 302 kts 134°
2026-05-03 22:11 -16.67808 -68.04901 19375 ft 308 kts 133°
2026-05-03 22:11 -16.69292 -68.03179 19485 ft 329 kts 133°
2026-05-03 22:12 -16.70880 -68.01366 19557 ft 348 kts 133°
2026-05-03 22:12 -16.72573 -67.99463 19622 ft 366 kts 134°
2026-05-03 22:12 -16.74347 -67.97499 19860 ft 375 kts 136°
2026-05-03 22:12 -16.76461 -67.95873 20229 ft 380 kts 150°
2026-05-03 22:13 -16.78793 -67.94629 20682 ft 383 kts 155°
2026-05-03 22:13 -16.81297 -67.93448 20830 ft 398 kts 156°
2026-05-03 22:13 -16.83845 -67.92268 20939 ft 411 kts 156°
2026-05-03 22:13 -16.86492 -67.91011 21038 ft 423 kts 155°
2026-05-03 22:14 -16.89182 -67.89693 21247 ft 431 kts 155°
2026-05-03 22:14 -16.91891 -67.88331 21667 ft 432 kts 154°
2026-05-03 22:14 -16.94611 -67.86942 21924 ft 439 kts 154°
2026-05-03 22:14 -16.97383 -67.85515 22075 ft 447 kts 154°
2026-05-03 22:15 -17.00189 -67.84066 22280 ft 452 kts 154°
2026-05-03 22:15 -17.03027 -67.82599 22556 ft 455 kts 154°
2026-05-03 22:15 -17.05837 -67.81146 22846 ft 457 kts 154°
2026-05-03 22:15 -17.08699 -67.79668 23136 ft 460 kts 154°
2026-05-03 22:16 -17.11588 -67.78177 23412 ft 463 kts 154°
2026-05-03 22:16 -17.14487 -67.76680 23678 ft 465 kts 154°
2026-05-03 22:16 -17.17402 -67.75174 23896 ft 468 kts 154°
2026-05-03 22:16 -17.20324 -67.73664 24124 ft 469 kts 155°
2026-05-03 22:17 -17.23227 -67.72164 24356 ft 471 kts 155°
2026-05-03 22:17 -17.26169 -67.70643 24583 ft 472 kts 154°
2026-05-03 22:17 -17.29017 -67.68907 24801 ft 475 kts 144°
2026-05-03 22:17 -17.31602 -67.66742 25037 ft 477 kts 140°
2026-05-03 22:18 -17.34114 -67.64469 25269 ft 478 kts 139°
2026-05-03 22:18 -17.36618 -67.62160 25473 ft 480 kts 139°
2026-05-03 22:18 -17.39137 -67.59848 25676 ft 482 kts 140°
2026-05-03 22:18 -17.41684 -67.57544 25886 ft 483 kts 140°
2026-05-03 22:19 -17.44211 -67.55286 26078 ft 485 kts 140°
2026-05-03 22:19 -17.46797 -67.52996 26256 ft 487 kts 141°
2026-05-03 22:19 -17.49391 -67.50709 26503 ft 487 kts 141°
2026-05-03 22:19 -17.51978 -67.48432 26883 ft 484 kts 141°
2026-05-03 22:20 -17.54554 -67.46163 27280 ft 481 kts 141°
2026-05-03 22:20 -17.57112 -67.43909 27676 ft 479 kts 141°
2026-05-03 22:20 -17.59626 -67.41691 28016 ft 479 kts 141°
2026-05-03 22:20 -17.62178 -67.39438 28313 ft 479 kts 141°
2026-05-03 22:21 -17.64731 -67.37182 28638 ft 480 kts 141°
2026-05-03 22:21 -17.67284 -67.34925 29004 ft 479 kts 141°
2026-05-03 22:21 -17.69837 -67.32668 29376 ft 479 kts 141°
2026-05-03 22:21 -17.72388 -67.30411 29726 ft 479 kts 141°
2026-05-03 22:22 -17.74902 -67.28186 30070 ft 479 kts 141°
2026-05-03 22:22 -17.77449 -67.25930 30405 ft 479 kts 141°
2026-05-03 22:22 -17.79995 -67.23675 30704 ft 479 kts 141°
2026-05-03 22:22 -17.82544 -67.21417 30988 ft 480 kts 141°
2026-05-03 22:23 -17.85096 -67.19154 31284 ft 480 kts 142°
2026-05-03 22:23 -17.87653 -67.16887 31607 ft 480 kts 142°
2026-05-03 22:23 -17.90198 -67.14629 31919 ft 480 kts 142°
2026-05-03 22:23 -17.92754 -67.12361 32202 ft 481 kts 142°
2026-05-03 22:24 -17.95379 -67.10185 32473 ft 480 kts 149°
2026-05-03 22:24 -17.98267 -67.08553 32791 ft 475 kts 160°
2026-05-03 22:24 -18.01378 -67.07450 33134 ft 470 kts 169°
2026-05-03 22:25 -18.07864 -67.06644 33139 ft 470 kts 179°
2026-05-03 22:25 -18.14364 -67.06090 33124 ft 464 kts 179°
2026-05-03 22:26 -18.20795 -67.05504 33136 ft 463 kts 179°
2026-05-03 22:26 -18.27188 -67.04896 33134 ft 464 kts 178°
2026-05-03 22:27 -18.33619 -67.04275 33127 ft 464 kts 178°
2026-05-03 22:27 -18.40061 -67.03652 33117 ft 463 kts 178°
2026-05-03 22:28 -18.46487 -67.03031 33107 ft 463 kts 178°
2026-05-03 22:28 -18.52875 -67.02414 33102 ft 463 kts 178°
2026-05-03 22:29 -18.59283 -67.01795 33099 ft 463 kts 178°
2026-05-03 22:29 -18.65718 -67.01172 33095 ft 462 kts 178°
2026-05-03 22:30 -18.72090 -67.00555 33085 ft 462 kts 178°
2026-05-03 22:30 -18.78506 -66.99934 33078 ft 462 kts 178°
2026-05-03 22:31 -18.84939 -66.99310 33071 ft 462 kts 178°
2026-05-03 22:31 -18.91319 -66.98691 33068 ft 462 kts 178°
2026-05-03 22:32 -18.97749 -66.98067 33062 ft 462 kts 178°
2026-05-03 22:32 -19.04146 -66.97445 33058 ft 463 kts 178°
2026-05-03 22:33 -19.10545 -66.96823 33060 ft 465 kts 178°
2026-05-03 22:33 -19.17000 -66.96195 33054 ft 466 kts 178°
2026-05-03 22:34 -19.23478 -66.95564 33059 ft 467 kts 178°
2026-05-03 22:34 -19.29922 -66.94935 33048 ft 466 kts 179°
2026-05-03 22:35 -19.36310 -66.94308 32862 ft 451 kts 179°
2026-05-03 22:35 -19.39425 -66.94002 32374 ft 447 kts 179°
2026-05-03 22:35 -19.42528 -66.93699 31772 ft 447 kts 178°
2026-05-03 22:35 -19.45628 -66.93398 31241 ft 446 kts 178°
2026-05-03 22:36 -19.48705 -66.93098 30802 ft 442 kts 178°
2026-05-03 22:36 -19.51753 -66.92801 30399 ft 437 kts 178°
2026-05-03 22:36 -19.54763 -66.92506 29977 ft 433 kts 177°
2026-05-03 22:36 -19.57720 -66.92217 29467 ft 429 kts 177°
2026-05-03 22:37 -19.60683 -66.91927 28934 ft 426 kts 177°
2026-05-03 22:37 -19.63628 -66.91639 28418 ft 423 kts 177°
2026-05-03 22:37 -19.66551 -66.91353 27908 ft 420 kts 177°
2026-05-03 22:37 -19.69457 -66.91068 27412 ft 417 kts 177°
2026-05-03 22:38 -19.72341 -66.90786 26921 ft 414 kts 176°
2026-05-03 22:38 -19.75206 -66.90504 26453 ft 411 kts 176°
2026-05-03 22:38 -19.78037 -66.90227 26011 ft 407 kts 176°
2026-05-03 22:38 -19.80845 -66.89952 25553 ft 404 kts 176°
2026-05-03 22:39 -19.83646 -66.89677 25076 ft 403 kts 176°
2026-05-03 22:39 -19.86432 -66.89403 24622 ft 401 kts 176°
2026-05-03 22:39 -19.89163 -66.89135 24202 ft 398 kts 176°
2026-05-03 22:39 -19.91915 -66.88865 23777 ft 396 kts 176°
2026-05-03 22:40 -19.94652 -66.88596 23304 ft 393 kts 176°
2026-05-03 22:40 -19.97369 -66.88329 22837 ft 390 kts 176°
2026-05-03 22:40 -20.00057 -66.88064 22392 ft 387 kts 176°
2026-05-03 22:40 -20.02729 -66.87801 21937 ft 383 kts 176°
2026-05-03 22:41 -20.05380 -66.87540 21485 ft 381 kts 176°
2026-05-03 22:41 -20.08011 -66.87281 21058 ft 378 kts 176°
2026-05-03 22:41 -20.10619 -66.87025 20620 ft 375 kts 175°
2026-05-03 22:41 -20.13209 -66.86770 20198 ft 373 kts 175°
2026-05-03 22:42 -20.15794 -66.86515 19779 ft 370 kts 175°
2026-05-03 22:42 -20.18314 -66.86267 19386 ft 367 kts 175°
2026-05-03 22:42 -20.20852 -66.86017 19017 ft 363 kts 175°
2026-05-03 22:42 -20.23356 -66.85770 18661 ft 358 kts 175°
2026-05-03 22:43 -20.25776 -66.85531 18549 ft 339 kts 175°
2026-05-03 22:43 -20.28062 -66.85305 18423 ft 321 kts 175°
2026-05-03 22:43 -20.30258 -66.85087 18050 ft 314 kts 175°
2026-05-03 22:43 -20.32429 -66.84873 17514 ft 312 kts 175°
2026-05-03 22:44 -20.34579 -66.84660 17153 ft 307 kts 175°
2026-05-03 22:44 -20.36670 -66.84453 17051 ft 307 kts 175°
2026-05-03 22:44 -20.38821 -66.84522 16901 ft 306 kts 188°
2026-05-03 22:44 -20.40943 -66.84469 16563 ft 308 kts 169°
2026-05-03 22:45 -20.43023 -66.84039 16179 ft 309 kts 171°
2026-05-03 22:45 -20.45128 -66.83529 15750 ft 313 kts 160°
2026-05-03 22:45 -20.47044 -66.82426 15416 ft 314 kts 147°
2026-05-03 22:45 -20.48834 -66.81106 15140 ft 312 kts 146°
2026-05-03 22:46 -20.50584 -66.79774 14967 ft 304 kts 145°
2026-05-03 22:46 -20.52261 -66.78499 14868 ft 288 kts 146°
2026-05-03 22:46 -20.53863 -66.77294 14763 ft 274 kts 146°
2026-05-03 22:46 -20.55383 -66.76158 14681 ft 260 kts 147°
2026-05-03 22:47 -20.56835 -66.75080 14602 ft 247 kts 147°
2026-05-03 22:47 -20.58213 -66.74061 14506 ft 234 kts 147°
2026-05-03 22:47 -20.59522 -66.73092 14455 ft 224 kts 147°
2026-05-03 22:47 -20.60786 -66.72157 14474 ft 219 kts 147°
2026-05-03 22:48 -20.61851 -66.71023 14536 ft 223 kts 122°
2026-05-03 22:48 -20.62345 -66.69461 14695 ft 223 kts 96°
2026-05-03 22:48 -20.62108 -66.67834 14885 ft 228 kts 62°
2026-05-03 22:48 -20.61100 -66.66550 14853 ft 223 kts 37°
2026-05-03 22:49 -20.59825 -66.65715 14761 ft 204 kts 22°
2026-05-03 22:49 -20.58557 -66.65317 14687 ft 180 kts
2026-05-03 22:49 -20.57348 -66.65279 14597 ft 166 kts 352°
2026-05-03 22:49 -20.56217 -66.65587 14633 ft 174 kts 333°
2026-05-03 22:50 -20.55230 -66.66338 14566 ft 176 kts 313°
2026-05-03 22:50 -20.54490 -66.67361 14462 ft 169 kts 301°
2026-05-03 22:50 -20.53901 -66.68459 14395 ft 173 kts 297°
2026-05-03 22:50 -20.53339 -66.69584 14297 ft 171 kts 298°
2026-05-03 22:51 -20.52744 -66.70678 14238 ft 171 kts 298°
2026-05-03 22:51 -20.52144 -66.71770 14166 ft 169 kts 301°
2026-05-03 22:51 -20.51511 -66.72838 14145 ft 174 kts 300°
2026-05-03 22:51 -20.50868 -66.73911 13927 ft 172 kts 300°
2026-05-03 22:52 -20.50243 -66.74983 13706 ft 169 kts 300°
2026-05-03 22:52 -20.49641 -66.76042 13478 ft 166 kts 299°
2026-05-03 22:52 -20.49039 -66.77090 13271 ft 166 kts 300°
2026-05-03 22:52 -20.48437 -66.78145 13147 ft 165 kts 299°
2026-05-03 22:53 -20.47863 -66.79188 13123 ft 169 kts 299°
2026-05-03 22:53 -20.47252 -66.80247 12831 ft 167 kts 301°
2026-05-03 22:53 -20.46638 -66.81307 12615 ft 169 kts 301°
2026-05-03 22:53 -20.46032 -66.82377 12432 ft 167 kts 302°
2026-05-03 22:54 -20.45627 -66.83085 12278 ft 167 kts 302°
2026-05-03 22:54 -20.44847 -66.84467 11986 ft 155 kts 302°
2026-05-03 22:54 -20.44498 -66.85077 11981 ft 135 kts 301°
2026-05-03 22:54 -20.43989 -66.85978 11980 ft 70 kts 301°
2026-05-03 22:55 -20.43830 -66.86259 11974 ft 64 kts 301°
2026-05-03 22:55 -20.43614 -66.86638 11981 ft 56 kts 301°
2026-05-03 22:55 -20.43439 -66.86923 11978 ft 7 kts 314°
2026-05-03 22:55 -20.43437 -66.86936 11978 ft 1 kts 254°
2026-05-03 22:56 -20.43441 -66.86937 11978 ft 1 kts 201°
2026-05-03 22:56 -20.43449 -66.86930 11973 ft 4 kts 142°
2026-05-03 22:56 -20.43524 -66.86797 11974 ft 51 kts 121°
2026-05-03 22:56 -20.43824 -66.86269 11978 ft 116 kts 123°
2026-05-03 22:57 -20.44277 -66.85470 11975 ft 119 kts 121°
2026-05-03 22:57 -20.44576 -66.84897 11979 ft 54 kts 104°
2026-05-03 22:57 -20.44545 -66.84367 11968 ft 0 kts 31°